User: anonymous
Location: Astronight Observatory
(42.6003°N, 71.2981°W)
Time: 09:58:38
(UTC-04:00)
Language:

DELTA 2 R/B (1) - Orbit

View from above orbital plane
View from above orbital plane
View from above satellite
View from above satellite

Ground track
Ground track

The orbit data is extracted from the following two-line orbital elements,

1 27665U 03005C   14203.15278662 -.00000140  00000-0 -21793-4 0   715
2 27665 039.5760 112.1311 0010313 215.1042 290.6327 14.28204959599186
Epoch (UTC): 22 July 2014 03:40:00
Eccentricity: 0.0010313
inclination: 39.5760°
perigee height: 790 km
apogee height: 805 km
right ascension of ascending node: 112.1311°
argument of perigee: 215.1042°
revolutions per day: 14.28204959
mean anomaly at epoch: 290.6327°
orbit number at epoch: 59918

The dashed part of the orbit path shows where the satellite is in the earth's shadow,  

DLR